| time (UTC) | temp C | wind direction | speed KPH | gust KPH | rain 1hr cm | rain 24hr cm | rain mn cm | humidity % | barometer mb |
| 20260509043618 | 12 | 21 | 0.0 | 1.6 | 0.00 | 0.00 | 0.00 | 89 | 1006.6 |
| 20260509043113 | 12 | 21 | 0.0 | 1.6 | 0.00 | 0.00 | 0.00 | 89 | 1006.9 |
| 20260509042607 | 12 | 21 | 0.0 | 1.6 | 0.00 | 0.00 | 0.00 | 89 | 1006.9 |
| 20260509042101 | 12 | 21 | 0.0 | 1.6 | 0.00 | 0.00 | 0.00 | 89 | 1006.7 |
| 20260509041555 | 12 | 21 | 1.6 | 1.6 | 0.00 | 0.00 | 0.00 | 88 | 1006.9 |
| 20260509041049 | 12 | 21 | 1.6 | 1.6 | 0.00 | 0.00 | 0.00 | 88 | 1006.9 |
| 20260509040542 | 12 | 21 | 1.6 | 3.2 | 0.00 | 0.00 | 0.00 | 88 | 1006.9 |
| 20260509040255 | 12 | 21 | 1.6 | 3.2 | 0.00 | 0.00 | 0.00 | 88 | 1006.9 |
| 20260509035530 | 12 | 21 | 0.0 | 1.6 | 0.00 | 0.00 | 0.00 | 87 | 1007.1 |
| 20260509035025 | 12 | 21 | 1.6 | 1.6 | 0.00 | 0.00 | 0.00 | 87 | 1007.0 |
| 20260509034518 | 12 | 21 | 0.0 | 1.6 | 0.00 | 0.00 | 0.00 | 87 | 1006.9 |
| 20260509034013 | 12 | 21 | 0.0 | 1.6 | 0.00 | 0.00 | 0.00 | 86 | 1006.9 |
| 20260509033507 | 12 | 21 | 0.0 | 1.6 | 0.00 | 0.00 | 0.00 | 86 | 1007.0 |
| 20260509033001 | 12 | 21 | 0.0 | 1.6 | 0.00 | 0.00 | 0.00 | 86 | 1007.1 |
| 20260509032455 | 12 | 21 | 0.0 | 1.6 | 0.00 | 0.00 | 0.00 | 85 | 1007.1 |
| 20260509031948 | 12 | 21 | 0.0 | 1.6 | 0.00 | 0.00 | 0.00 | 85 | 1007.2 |
| 20260509031443 | 12 | 21 | 0.0 | 1.6 | 0.00 | 0.00 | 0.00 | 85 | 1007.2 |
| 20260509030937 | 13 | 21 | 0.0 | 1.6 | 0.00 | 0.00 | 0.00 | 84 | 1007.3 |
| 20260509030638 | 13 | 21 | 0.0 | 1.6 | 0.00 | 0.00 | 0.00 | 84 | 1007.4 |
| 20260509030521 | 13 | 21 | 0.0 | 1.6 | 0.00 | 0.00 | 0.00 | 84 | 1007.4 |
| 20260509025656 | 13 | 21 | 0.0 | 1.6 | 0.00 | 0.00 | 0.00 | 83 | 1007.4 |
| 20260509024913 | 13 | 21 | 1.6 | 3.2 | 0.00 | 0.00 | 0.00 | 83 | 1007.4 |
| 20260509024407 | 13 | 21 | 1.6 | 3.2 | 0.00 | 0.00 | 0.00 | 82 | 1007.4 |
| 20260509023901 | 13 | 21 | 1.6 | 4.8 | 0.00 | 0.00 | 0.00 | 82 | 1007.4 |
| 20260509023355 | 13 | 33 | 1.6 | 4.8 | 0.00 | 0.00 | 0.00 | 82 | 1007.6 |
| 20260509022849 | 13 | 12 | 1.6 | 4.8 | 0.00 | 0.00 | 0.00 | 82 | 1007.5 |
| 20260509022342 | 13 | 351 | 1.6 | 4.8 | 0.00 | 0.00 | 0.00 | 81 | 1007.4 |
| 20260509021837 | 13 | 350 | 3.2 | 6.4 | 0.00 | 0.00 | 0.00 | 81 | 1007.4 |
| 20260509021813 | 13 | 22 | 3.2 | 6.4 | 0.00 | 0.00 | 0.00 | 81 | 1007.5 |
| 20260509020824 | 13 | 356 | 3.2 | 4.8 | 0.00 | 0.00 | 0.00 | 81 | 1007.5 |
| 20260509020319 | 13 | 47 | 3.2 | 6.4 | 0.00 | 0.00 | 0.00 | 80 | 1007.4 |
| 20260509020042 | 13 | 17 | 4.8 | 6.4 | 0.00 | 0.00 | 0.00 | 80 | 1007.2 |
| 20260509015307 | 13 | 0 | 4.8 | 6.4 | 0.00 | 0.00 | 0.00 | 79 | 1007.2 |
| 20260509014801 | 14 | 355 | 4.8 | 6.4 | 0.00 | 0.00 | 0.00 | 79 | 1007.1 |
| 20260509014255 | 14 | 2 | 3.2 | 6.4 | 0.00 | 0.00 | 0.00 | 78 | 1007.0 |
| 20260509013750 | 14 | 22 | 3.2 | 3.2 | 0.00 | 0.00 | 0.00 | 78 | 1006.7 |
| 20260509013503 | 14 | 21 | 1.6 | 3.2 | 0.00 | 0.00 | 0.00 | 77 | 1006.5 |
| 20260509012737 | 14 | 22 | 1.6 | 3.2 | 0.00 | 0.00 | 0.00 | 77 | 1006.5 |
| 20260509012502 | 14 | 22 | 3.2 | 3.2 | 0.00 | 0.00 | 0.00 | 77 | 1006.5 |
| 20260509011725 | 14 | 22 | 3.2 | 4.8 | 0.00 | 0.00 | 0.00 | 76 | 1006.4 |
| 20260509011445 | 15 | 353 | 3.2 | 6.4 | 0.00 | 0.00 | 0.00 | 76 | 1006.4 |
| 20260509010713 | 15 | 343 | 3.2 | 6.4 | 0.00 | 0.00 | 0.00 | 75 | 1006.5 |
| 20260509010206 | 15 | 12 | 1.6 | 4.8 | 0.00 | 0.00 | 0.00 | 75 | 1006.5 |
| 20260509005701 | 15 | 353 | 1.6 | 4.8 | 0.00 | 0.00 | 0.00 | 74 | 1006.5 |
| 20260509005155 | 16 | 0 | 3.2 | 6.4 | 0.00 | 0.00 | 0.00 | 72 | 1006.5 |
| 20260509004906 | 16 | 3 | 3.2 | 6.4 | 0.00 | 0.00 | 0.00 | 69 | 1006.4 |
| 20260509004145 | 17 | 0 | 1.6 | 6.4 | 0.00 | 0.00 | 0.00 | 63 | 1006.5 |
| 20260509003646 | 17 | 200 | 0.0 | 1.6 | 0.00 | 0.00 | 0.00 | 58 | 1006.3 |
| 20260509003148 | 17 | 200 | 0.0 | 1.6 | 0.00 | 0.00 | 0.00 | 57 | 1006.1 |
| 20260509002646 | 17 | 200 | 0.0 | 1.6 | 0.00 | 0.00 | 0.00 | 56 | 1006.0 |
| 20260509002144 | 17 | 200 | 0.0 | 1.6 | 0.00 | 0.00 | 0.00 | 56 | 1006.0 |
| 20260509001644 | 17 | 200 | 0.0 | 1.6 | 0.00 | 0.00 | 0.00 | 56 | 1006.0 |
| 20260509001144 | 17 | 200 | 0.0 | 1.6 | 0.00 | 0.00 | 0.00 | 56 | 1006.1 |
| 20260509000907 | 17 | 200 | 0.0 | 1.6 | 0.00 | 0.00 | 0.00 | 56 | 1006.1 |
| 20260509000142 | 17 | 200 | 0.0 | 1.6 | 0.00 | 0.00 | 0.00 | 56 | 1006.2 |
| 20260508235643 | 17 | 200 | 0.0 | 1.6 | 0.00 | 0.00 | 0.00 | 56 | 1006.3 |
| 20260508235140 | 17 | 200 | 0.0 | 1.6 | 0.00 | 0.00 | 0.00 | 57 | 1006.3 |
| 20260508234639 | 17 | 200 | 0.0 | 1.6 | 0.00 | 0.00 | 0.00 | 57 | 1006.3 |
| 20260508234138 | 18 | 200 | 0.0 | 1.6 | 0.00 | 0.00 | 0.00 | 57 | 1006.1 |
| 20260508233637 | 18 | 200 | 0.0 | 1.6 | 0.00 | 0.00 | 0.00 | 57 | 1006.0 |
| 20260508233138 | 18 | 200 | 0.0 | 1.6 | 0.00 | 0.00 | 0.00 | 56 | 1005.9 |
| 20260508232638 | 18 | 200 | 0.0 | 3.2 | 0.00 | 0.00 | 0.00 | 56 | 1005.9 |
| 20260508232137 | 18 | 200 | 1.6 | 3.2 | 0.00 | 0.00 | 0.00 | 56 | 1006.0 |
| 20260508231857 | 18 | 200 | 0.0 | 3.2 | 0.00 | 0.00 | 0.00 | 56 | 1005.9 |
| 20260508231134 | 18 | 200 | 0.0 | 3.2 | 0.00 | 0.00 | 0.00 | 56 | 1006.0 |
| 20260508230629 | 18 | 200 | 1.6 | 3.2 | 0.00 | 0.00 | 0.00 | 57 | 1006.1 |
| 20260508230126 | 18 | 200 | 0.0 | 3.2 | 0.00 | 0.00 | 0.00 | 56 | 1006.0 |
| 20260508225627 | 18 | 200 | 1.6 | 3.2 | 0.00 | 0.00 | 0.00 | 57 | 1006.0 |
| 20260508225127 | 18 | 199 | 1.6 | 3.2 | 0.00 | 0.00 | 0.00 | 56 | 1006.0 |
| 20260508224626 | 18 | 199 | 0.0 | 3.2 | 0.00 | 0.00 | 0.00 | 56 | 1006.0 |
| 20260508224126 | 18 | 199 | 0.0 | 1.6 | 0.00 | 0.00 | 0.00 | 56 | 1005.9 |
| 20260508223626 | 18 | 200 | 0.0 | 1.6 | 0.00 | 0.00 | 0.00 | 55 | 1005.9 |
| 20260508223126 | 18 | 200 | 0.0 | 1.6 | 0.00 | 0.00 | 0.00 | 54 | 1005.8 |
| 20260508222851 | 18 | 199 | 0.0 | 1.6 | 0.00 | 0.00 | 0.00 | 53 | 1005.8 |
| 20260508222127 | 19 | 200 | 0.0 | 1.6 | 0.00 | 0.00 | 0.00 | 53 | 1005.9 |
| 20260508221621 | 19 | 199 | 0.0 | 1.6 | 0.00 | 0.00 | 0.00 | 52 | 1005.8 |
| 20260508221343 | 19 | 199 | 0.0 | 1.6 | 0.00 | 0.00 | 0.00 | 51 | 1005.8 |
| 20260508220624 | 19 | 200 | 0.0 | 1.6 | 0.00 | 0.00 | 0.00 | 51 | 1005.7 |
| 20260508220344 | 19 | 200 | 0.0 | 1.6 | 0.00 | 0.00 | 0.00 | 50 | 1005.8 |
| 20260508215846 | 19 | 200 | 0.0 | 6.4 | 0.00 | 0.00 | 0.00 | 49 | 1005.8 |
| 20260508215121 | 20 | 199 | 1.6 | 8.0 | 0.00 | 0.00 | 0.00 | 49 | 1005.8 |
| 20260508214621 | 20 | 240 | 1.6 | 8.0 | 0.00 | 0.00 | 0.00 | 49 | 1005.8 |
| 20260508214121 | 20 | 258 | 1.6 | 9.7 | 0.00 | 0.00 | 0.00 | 48 | 1005.7 |
| 20260508213844 | 20 | 247 | 3.2 | 9.7 | 0.00 | 0.00 | 0.00 | 48 | 1005.7 |
| 20260508213604 | 20 | 206 | 3.2 | 11.3 | 0.00 | 0.00 | 0.00 | 48 | 1005.6 |
| 20260508212619 | 20 | 230 | 3.2 | 11.3 | 0.00 | 0.00 | 0.00 | 47 | 1005.7 |
| 20260508212119 | 20 | 251 | 3.2 | 9.7 | 0.00 | 0.00 | 0.00 | 48 | 1005.9 |
| 20260508211619 | 20 | 230 | 3.2 | 12.9 | 0.00 | 0.00 | 0.00 | 50 | 1005.8 |
| 20260508211119 | 20 | 218 | 3.2 | 12.9 | 0.00 | 0.00 | 0.00 | 48 | 1005.8 |
| 20260508210618 | 20 | 235 | 3.2 | 9.7 | 0.00 | 0.00 | 0.00 | 47 | 1005.9 |
| 20260508210117 | 20 | 206 | 1.6 | 8.0 | 0.00 | 0.00 | 0.00 | 48 | 1006.0 |
| 20260508205619 | 20 | 210 | 1.6 | 8.0 | 0.00 | 0.00 | 0.00 | 47 | 1006.0 |
| 20260508205119 | 20 | 230 | 3.2 | 12.9 | 0.00 | 0.00 | 0.00 | 47 | 1006.1 |
| 20260508204839 | 20 | 218 | 3.2 | 12.9 | 0.00 | 0.00 | 0.00 | 48 | 1006.2 |
| 20260508204115 | 20 | 218 | 3.2 | 11.3 | 0.00 | 0.00 | 0.00 | 47 | 1006.4 |
| 20260508203614 | 20 | 199 | 3.2 | 11.3 | 0.00 | 0.00 | 0.00 | 48 | 1006.5 |
| 20260508203115 | 20 | 213 | 3.2 | 9.7 | 0.00 | 0.00 | 0.00 | 48 | 1006.7 |
| 20260508202833 | 20 | 228 | 1.6 | 6.4 | 0.00 | 0.00 | 0.00 | 48 | 1006.9 |
| 20260508202111 | 20 | 230 | 1.6 | 6.4 | 0.00 | 0.00 | 0.00 | 49 | 1006.9 |
| 20260508201610 | 20 | 264 | 3.2 | 8.0 | 0.00 | 0.00 | 0.00 | 47 | 1007.0 |
| 20260508201550 | 20 | 242 | 3.2 | 14.5 | 0.00 | 0.00 | 0.00 | 48 | 1007.1 |
| 20260508200609 | 21 | 215 | 3.2 | 14.5 | 0.00 | 0.00 | 0.00 | 45 | 1007.1 |
| 20260508200108 | 21 | 189 | 4.8 | 14.5 | 0.00 | 0.00 | 0.00 | 46 | 1007.1 |
| 20260508195608 | 20 | 234 | 4.8 | 14.5 | 0.00 | 0.00 | 0.00 | 46 | 1007.2 |
| 20260508195108 | 20 | 174 | 4.8 | 17.7 | 0.00 | 0.00 | 0.00 | 44 | 1007.3 |
| 20260508194607 | 20 | 231 | 3.2 | 17.7 | 0.00 | 0.00 | 0.00 | 45 | 1007.2 |
| 20260508194109 | 20 | 237 | 3.2 | 16.1 | 0.00 | 0.00 | 0.00 | 48 | 1007.3 |
| 20260508193839 | 20 | 336 | 3.2 | 16.1 | 0.00 | 0.00 | 0.00 | 46 | 1007.4 |
| 20260508193101 | 20 | 241 | 4.8 | 17.7 | 0.00 | 0.00 | 0.00 | 46 | 1007.5 |
| 20260508192554 | 20 | 242 | 4.8 | 17.7 | 0.00 | 0.00 | 0.00 | 45 | 1007.5 |
| 20260508192055 | 20 | 212 | 4.8 | 14.5 | 0.00 | 0.00 | 0.00 | 45 | 1007.5 |
| 20260508191555 | 20 | 244 | 4.8 | 16.1 | 0.00 | 0.00 | 0.00 | 44 | 1007.6 |
| 20260508191054 | 21 | 256 | 4.8 | 16.1 | 0.00 | 0.00 | 0.00 | 46 | 1007.5 |
| 20260508190555 | 21 | 233 | 4.8 | 14.5 | 0.00 | 0.00 | 0.00 | 44 | 1007.6 |
| 20260508190317 | 21 | 256 | 6.4 | 16.1 | 0.00 | 0.00 | 0.00 | 44 | 1007.6 |
| 20260508185553 | 21 | 235 | 6.4 | 17.7 | 0.00 | 0.00 | 0.00 | 48 | 1007.6 |
| 20260508185053 | 21 | 242 | 4.8 | 17.7 | 0.00 | 0.00 | 0.00 | 46 | 1007.7 |
| 20260508184817 | 21 | 222 | 4.8 | 14.5 | 0.00 | 0.00 | 0.00 | 46 | 1007.8 |
| 20260508184055 | 21 | 236 | 4.8 | 16.1 | 0.00 | 0.00 | 0.00 | 46 | 1007.9 |
| 20260508183554 | 21 | 242 | 4.8 | 16.1 | 0.00 | 0.00 | 0.00 | 44 | 1008.0 |
| 20260508183055 | 21 | 199 | 4.8 | 16.1 | 0.00 | 0.00 | 0.00 | 47 | 1008.1 |
| 20260508182553 | 21 | 249 | 6.4 | 16.1 | 0.00 | 0.00 | 0.00 | 44 | 1008.0 |
| 20260508182054 | 20 | 216 | 4.8 | 16.1 | 0.00 | 0.00 | 0.00 | 48 | 1008.1 |
| 20260508181553 | 20 | 327 | 4.8 | 12.9 | 0.00 | 0.00 | 0.00 | 46 | 1008.2 |
| 20260508181053 | 20 | 251 | 4.8 | 14.5 | 0.00 | 0.00 | 0.00 | 45 | 1008.3 |
| 20260508180817 | 20 | 245 | 4.8 | 16.1 | 0.00 | 0.00 | 0.00 | 45 | 1008.4 |
| 20260508180047 | 20 | 250 | 3.2 | 16.1 | 0.00 | 0.00 | 0.00 | 49 | 1008.6 |
| 20260508175542 | 20 | 211 | 3.2 | 14.5 | 0.00 | 0.00 | 0.00 | 47 | 1008.7 |
| 20260508175035 | 21 | 146 | 4.8 | 20.9 | 0.00 | 0.00 | 0.00 | 46 | 1008.8 |
| 20260508174530 | 21 | 240 | 4.8 | 20.9 | 0.00 | 0.00 | 0.00 | 45 | 1008.8 |
| 20260508174024 | 21 | 235 | 4.8 | 17.7 | 0.00 | 0.00 | 0.00 | 45 | 1008.9 |
| 20260508173518 | 21 | 248 | 6.4 | 19.3 | 0.00 | 0.00 | 0.00 | 47 | 1009.0 |
| 20260508173011 | 21 | 247 | 6.4 | 19.3 | 0.00 | 0.00 | 0.00 | 47 | 1008.9 |
| 20260508172506 | 21 | 232 | 4.8 | 11.3 | 0.00 | 0.00 | 0.00 | 47 | 1009.0 |
| 20260508172444 | 20 | 293 | 3.2 | 9.7 | 0.00 | 0.00 | 0.00 | 49 | 1009.2 |
| 20260508171453 | 20 | 269 | 3.2 | 14.5 | 0.00 | 0.00 | 0.00 | 49 | 1009.2 |
| 20260508170948 | 20 | 223 | 4.8 | 14.5 | 0.00 | 0.00 | 0.00 | 50 | 1009.4 |
| 20260508170441 | 20 | 240 | 4.8 | 19.3 | 0.00 | 0.00 | 0.00 | 46 | 1009.3 |
| 20260508170152 | 21 | 245 | 4.8 | 19.3 | 0.00 | 0.00 | 0.00 | 49 | 1009.5 |
| 20260508165429 | 20 | 242 | 4.8 | 14.5 | 0.00 | 0.00 | 0.00 | 48 | 1009.5 |
| 20260508164924 | 20 | 170 | 3.2 | 14.5 | 0.00 | 0.00 | 0.00 | 47 | 1009.6 |
| 20260508164418 | 21 | 251 | 3.2 | 16.1 | 0.00 | 0.00 | 0.00 | 48 | 1009.7 |
| 20260508163912 | 21 | 234 | 4.8 | 16.1 | 0.00 | 0.00 | 0.00 | 46 | 1009.9 |
| 20260508163408 | 21 | 122 | 4.8 | 12.9 | 0.00 | 0.00 | 0.00 | 51 | 1009.9 |
| 20260508162900 | 21 | 205 | 6.4 | 17.7 | 0.00 | 0.00 | 0.00 | 47 | 1010.0 |
| 20260508162354 | 21 | 232 | 4.8 | 17.7 | 0.00 | 0.00 | 0.00 | 48 | 1010.1 |
| 20260508161847 | 21 | 131 | 4.8 | 16.1 | 0.00 | 0.00 | 0.00 | 49 | 1010.2 |
| 20260508161342 | 20 | 259 | 4.8 | 14.5 | 0.00 | 0.00 | 0.00 | 50 | 1010.1 |
| 20260508160836 | 20 | 228 | 4.8 | 17.7 | 0.00 | 0.00 | 0.00 | 48 | 1010.3 |
| 20260508160331 | 20 | 141 | 4.8 | 17.7 | 0.00 | 0.00 | 0.00 | 49 | 1010.2 |
| 20260508155824 | 20 | 166 | 4.8 | 16.1 | 0.00 | 0.00 | 0.00 | 49 | 1010.2 |
| 20260508155539 | 20 | 223 | 4.8 | 16.1 | 0.00 | 0.00 | 0.00 | 52 | 1010.3 |
| 20260508155032 | 19 | 264 | 6.4 | 22.5 | 0.00 | 0.00 | 0.00 | 51 | 1010.3 |
| 20260508154306 | 19 | 254 | 8.0 | 22.5 | 0.00 | 0.00 | 0.00 | 51 | 1010.4 |
| 20260508153800 | 19 | 181 | 6.4 | 20.9 | 0.00 | 0.00 | 0.00 | 50 | 1010.4 |
| 20260508153254 | 19 | 251 | 6.4 | 27.4 | 0.00 | 0.00 | 0.00 | 49 | 1010.4 |
| 20260508152748 | 18 | 348 | 6.4 | 27.4 | 0.00 | 0.00 | 0.00 | 51 | 1010.5 |
| 20260508152242 | 18 | 258 | 4.8 | 16.1 | 0.00 | 0.00 | 0.00 | 53 | 1010.6 |
| 20260508151735 | 18 | 213 | 4.8 | 14.5 | 0.00 | 0.00 | 0.00 | 54 | 1010.6 |
| 20260508151230 | 18 | 196 | 6.4 | 19.3 | 0.00 | 0.00 | 0.00 | 53 | 1010.7 |
| 20260508150939 | 18 | 233 | 6.4 | 19.3 | 0.00 | 0.00 | 0.00 | 51 | 1010.8 |
| 20260508150443 | 18 | 242 | 4.8 | 11.3 | 0.00 | 0.00 | 0.00 | 52 | 1010.9 |
| 20260508145712 | 18 | 241 | 4.8 | 12.9 | 0.00 | 0.00 | 0.00 | 53 | 1010.9 |
| 20260508145205 | 18 | 265 | 4.8 | 17.7 | 0.00 | 0.00 | 0.00 | 54 | 1010.9 |
| 20260508144659 | 17 | 244 | 6.4 | 20.9 | 0.00 | 0.00 | 0.00 | 54 | 1011.0 |
| 20260508144154 | 17 | 241 | 6.4 | 20.9 | 0.00 | 0.00 | 0.00 | 52 | 1011.2 |
| 20260508143648 | 17 | 243 | 6.4 | 14.5 | 0.00 | 0.00 | 0.00 | 52 | 1011.0 |
| 20260508143141 | 17 | 260 | 4.8 | 11.3 | 0.00 | 0.00 | 0.00 | 53 | 1011.2 |
| 20260508142635 | 17 | 136 | 4.8 | 14.5 | 0.00 | 0.00 | 0.00 | 55 | 1011.2 |
| 20260508142130 | 17 | 202 | 4.8 | 17.7 | 0.00 | 0.00 | 0.00 | 53 | 1011.2 |
| 20260508141623 | 16 | 209 | 4.8 | 17.7 | 0.00 | 0.00 | 0.00 | 55 | 1011.3 |
| 20260508141118 | 16 | 199 | 3.2 | 9.7 | 0.00 | 0.00 | 0.00 | 58 | 1011.3 |
| 20260508140612 | 16 | 97 | 3.2 | 9.7 | 0.00 | 0.00 | 0.00 | 58 | 1011.4 |
| 20260508140327 | 16 | 232 | 3.2 | 11.3 | 0.00 | 0.00 | 0.00 | 58 | 1011.5 |
| 20260508135559 | 15 | 265 | 4.8 | 11.3 | 0.00 | 0.00 | 0.00 | 60 | 1011.5 |
| 20260508135054 | 15 | 200 | 3.2 | 9.7 | 0.00 | 0.00 | 0.00 | 62 | 1011.5 |
| 20260508134547 | 14 | 254 | 3.2 | 9.7 | 0.00 | 0.00 | 0.00 | 64 | 1011.5 |
| 20260508134042 | 14 | 270 | 3.2 | 9.7 | 0.00 | 0.00 | 0.00 | 65 | 1011.6 |
| 20260508133536 | 13 | 221 | 3.2 | 12.9 | 0.00 | 0.00 | 0.00 | 66 | 1011.5 |
| 20260508133036 | 13 | 200 | 3.2 | 12.9 | 0.00 | 0.00 | 0.00 | 66 | 1011.5 |
| 20260508132536 | 12 | 215 | 3.2 | 9.7 | 0.00 | 0.00 | 0.00 | 66 | 1011.5 |
| 20260508132036 | 12 | 259 | 1.6 | 6.4 | 0.00 | 0.00 | 0.00 | 69 | 1011.5 |
| 20260508131753 | 12 | 262 | 1.6 | 6.4 | 0.00 | 0.00 | 0.00 | 71 | 1011.5 |
| 20260508131033 | 11 | 151 | 1.6 | 6.4 | 0.00 | 0.00 | 0.00 | 72 | 1011.6 |
| 20260508130534 | 11 | 258 | 1.6 | 6.4 | 0.00 | 0.00 | 0.00 | 72 | 1011.6 |
| 20260508130254 | 10 | 230 | 3.2 | 4.8 | 0.00 | 0.00 | 0.00 | 74 | 1011.5 |
| 20260508125530 | 10 | 230 | 3.2 | 4.8 | 0.00 | 0.00 | 0.00 | 75 | 1011.6 |
| 20260508125028 | 10 | 230 | 3.2 | 8.0 | 0.00 | 0.00 | 0.00 | 76 | 1011.6 |
| 20260508124529 | 9 | 230 | 3.2 | 8.0 | 0.00 | 0.00 | 0.00 | 76 | 1011.6 |
| 20260508124027 | 9 | 222 | 3.2 | 6.4 | 0.00 | 0.00 | 0.00 | 76 | 1011.5 |
| 20260508123526 | 9 | 228 | 3.2 | 6.4 | 0.00 | 0.00 | 0.00 | 77 | 1011.5 |
| 20260508123026 | 8 | 241 | 3.2 | 6.4 | 0.00 | 0.00 | 0.00 | 78 | 1011.5 |
| 20260508122526 | 8 | 237 | 3.2 | 4.8 | 0.00 | 0.00 | 0.00 | 79 | 1011.4 |
| 20260508122246 | 8 | 237 | 3.2 | 4.8 | 0.00 | 0.00 | 0.00 | 80 | 1011.3 |
| 20260508121523 | 7 | 237 | 3.2 | 4.8 | 0.00 | 0.00 | 0.00 | 80 | 1011.3 |
| 20260508121244 | 7 | 237 | 3.2 | 4.8 | 0.00 | 0.00 | 0.00 | 81 | 1011.4 |
| 20260508120747 | 7 | 237 | 3.2 | 4.8 | 0.00 | 0.00 | 0.00 | 81 | 1011.4 |
| 20260508120022 | 7 | 237 | 3.2 | 3.2 | 0.00 | 0.00 | 0.00 | 81 | 1011.4 |
| 20260508115517 | 7 | 237 | 3.2 | 4.8 | 0.00 | 0.00 | 0.00 | 81 | 1011.4 |
| 20260508115010 | 7 | 237 | 3.2 | 4.8 | 0.00 | 0.00 | 0.00 | 82 | 1011.3 |
| 20260508114510 | 7 | 237 | 3.2 | 3.2 | 0.00 | 0.00 | 0.00 | 82 | 1011.4 |
| 20260508114010 | 6 | 237 | 3.2 | 3.2 | 0.00 | 0.00 | 0.00 | 82 | 1011.3 |
| 20260508113509 | 6 | 237 | 3.2 | 4.8 | 0.00 | 0.00 | 0.00 | 82 | 1011.3 |
| 20260508113007 | 6 | 237 | 3.2 | 4.8 | 0.00 | 0.00 | 0.00 | 82 | 1011.0 |
| 20260508112506 | 6 | 237 | 3.2 | 4.8 | 0.00 | 0.00 | 0.00 | 81 | 1011.0 |
| 20260508112006 | 6 | 237 | 3.2 | 4.8 | 0.00 | 0.00 | 0.00 | 81 | 1010.9 |
| 20260508111506 | 6 | 237 | 3.2 | 4.8 | 0.00 | 0.00 | 0.00 | 81 | 1011.0 |
| 20260508111003 | 6 | 237 | 1.6 | 3.2 | 0.00 | 0.00 | 0.00 | 81 | 1010.9 |
| 20260508110501 | 6 | 237 | 1.6 | 3.2 | 0.00 | 0.00 | 0.00 | 81 | 1011.0 |
| 20260508110000 | 6 | 237 | 0.0 | 3.2 | 0.00 | 0.00 | 0.00 | 81 | 1011.0 |
| 20260508105940 | 7 | 237 | 1.6 | 4.8 | 0.00 | 0.00 | 0.00 | 81 | 1010.8 |
| 20260508105437 | 7 | 237 | 3.2 | 4.8 | 0.00 | 0.00 | 0.00 | 82 | 1010.7 |
| 20260508104455 | 7 | 237 | 3.2 | 4.8 | 0.00 | 0.00 | 0.00 | 81 | 1010.7 |
| 20260508103954 | 7 | 237 | 1.6 | 4.8 | 0.00 | 0.00 | 0.00 | 81 | 1010.7 |
| 20260508103710 | 6 | 237 | 1.6 | 3.2 | 0.00 | 0.00 | 0.00 | 82 | 1010.8 |
| 20260508103215 | 6 | 237 | 1.6 | 3.2 | 0.00 | 0.00 | 0.00 | 82 | 1010.8 |
| 20260508102714 | 6 | 237 | 1.6 | 1.6 | 0.00 | 0.00 | 0.00 | 82 | 1010.8 |
| 20260508101948 | 6 | 237 | 1.6 | 3.2 | 0.00 | 0.00 | 0.00 | 82 | 1010.8 |
| 20260508101450 | 6 | 237 | 1.6 | 3.2 | 0.00 | 0.00 | 0.00 | 82 | 1010.8 |
| 20260508100949 | 6 | 237 | 1.6 | 3.2 | 0.00 | 0.00 | 0.00 | 82 | 1010.8 |
| 20260508100449 | 6 | 237 | 1.6 | 3.2 | 0.00 | 0.00 | 0.00 | 82 | 1010.7 |
| 20260508095950 | 6 | 237 | 3.2 | 4.8 | 0.00 | 0.00 | 0.00 | 81 | 1010.7 |
| 20260508095450 | 6 | 237 | 3.2 | 4.8 | 0.00 | 0.00 | 0.00 | 81 | 1010.7 |
| 20260508094949 | 6 | 237 | 3.2 | 4.8 | 0.00 | 0.00 | 0.00 | 81 | 1010.8 |
| 20260508094717 | 6 | 237 | 1.6 | 4.8 | 0.00 | 0.00 | 0.00 | 81 | 1010.8 |
| 20260508093949 | 6 | 237 | 1.6 | 3.2 | 0.00 | 0.00 | 0.00 | 81 | 1010.8 |
| 20260508093450 | 6 | 237 | 1.6 | 3.2 | 0.00 | 0.00 | 0.00 | 81 | 1010.8 |
| 20260508092949 | 6 | 237 | 1.6 | 3.2 | 0.00 | 0.00 | 0.00 | 81 | 1010.8 |
| 20260508092450 | 6 | 237 | 1.6 | 3.2 | 0.00 | 0.00 | 0.00 | 81 | 1010.8 |
| 20260508091948 | 6 | 237 | 1.6 | 3.2 | 0.00 | 0.00 | 0.00 | 81 | 1010.8 |
| 20260508091449 | 6 | 237 | 1.6 | 3.2 | 0.00 | 0.00 | 0.00 | 81 | 1010.8 |
| 20260508090948 | 6 | 237 | 1.6 | 4.8 | 0.00 | 0.00 | 0.00 | 80 | 1010.7 |
| 20260508090449 | 6 | 237 | 1.6 | 4.8 | 0.00 | 0.00 | 0.00 | 81 | 1010.8 |
| 20260508085950 | 6 | 237 | 3.2 | 4.8 | 0.00 | 0.00 | 0.00 | 81 | 1010.8 |
| 20260508085448 | 6 | 237 | 3.2 | 4.8 | 0.00 | 0.00 | 0.00 | 81 | 1010.8 |
| 20260508084942 | 6 | 237 | 3.2 | 4.8 | 0.00 | 0.00 | 0.00 | 81 | 1010.8 |
| 20260508084434 | 6 | 237 | 3.2 | 4.8 | 0.00 | 0.00 | 0.00 | 81 | 1010.8 |
| 20260508084151 | 6 | 237 | 3.2 | 4.8 | 0.00 | 0.00 | 0.00 | 81 | 1010.8 |
| 20260508083423 | 6 | 237 | 1.6 | 4.8 | 0.00 | 0.00 | 0.00 | 81 | 1010.7 |
| 20260508082918 | 6 | 237 | 1.6 | 3.2 | 0.00 | 0.00 | 0.00 | 80 | 1010.8 |
| 20260508082410 | 6 | 237 | 1.6 | 3.2 | 0.00 | 0.00 | 0.00 | 81 | 1010.8 |
| 20260508081905 | 6 | 237 | 1.6 | 3.2 | 0.00 | 0.00 | 0.00 | 80 | 1010.8 |
| 20260508081359 | 6 | 237 | 1.6 | 3.2 | 0.00 | 0.00 | 0.00 | 81 | 1010.7 |
| 20260508080855 | 6 | 237 | 1.6 | 3.2 | 0.00 | 0.00 | 0.00 | 81 | 1010.6 |
| 20260508080349 | 6 | 237 | 1.6 | 3.2 | 0.00 | 0.00 | 0.00 | 81 | 1010.6 |
| 20260508075841 | 6 | 237 | 1.6 | 3.2 | 0.00 | 0.00 | 0.00 | 81 | 1010.7 |
| 20260508075336 | 6 | 237 | 1.6 | 3.2 | 0.00 | 0.00 | 0.00 | 81 | 1010.7 |
| 20260508074838 | 6 | 237 | 1.6 | 3.2 | 0.00 | 0.00 | 0.00 | 81 | 1010.8 |
| 20260508074338 | 6 | 237 | 1.6 | 3.2 | 0.00 | 0.00 | 0.00 | 80 | 1010.7 |
| 20260508073835 | 6 | 237 | 1.6 | 3.2 | 0.00 | 0.00 | 0.00 | 80 | 1010.7 |
| 20260508073333 | 6 | 237 | 1.6 | 3.2 | 0.00 | 0.00 | 0.00 | 80 | 1010.7 |
| 20260508072832 | 6 | 237 | 1.6 | 6.4 | 0.00 | 0.00 | 0.00 | 79 | 1010.7 |
| 20260508072333 | 6 | 237 | 1.6 | 6.4 | 0.00 | 0.00 | 0.00 | 79 | 1010.7 |
| 20260508071831 | 6 | 237 | 1.6 | 6.4 | 0.00 | 0.00 | 0.00 | 79 | 1010.7 |
| 20260508071556 | 7 | 237 | 3.2 | 4.8 | 0.00 | 0.00 | 0.00 | 78 | 1010.8 |
| 20260508070828 | 7 | 237 | 1.6 | 4.8 | 0.00 | 0.00 | 0.00 | 78 | 1010.8 |
| 20260508070329 | 7 | 237 | 1.6 | 4.8 | 0.00 | 0.00 | 0.00 | 78 | 1010.8 |
| 20260508065828 | 7 | 237 | 1.6 | 4.8 | 0.00 | 0.00 | 0.00 | 78 | 1010.9 |
| 20260508065328 | 7 | 237 | 1.6 | 3.2 | 0.00 | 0.00 | 0.00 | 79 | 1011.0 |
| 20260508065044 | 7 | 237 | 1.6 | 3.2 | 0.00 | 0.00 | 0.00 | 79 | 1011.0 |
| 20260508064550 | 7 | 237 | 1.6 | 8.0 | 0.00 | 0.00 | 0.00 | 79 | 1011.2 |
| 20260508064046 | 7 | 237 | 1.6 | 8.0 | 0.00 | 0.00 | 0.00 | 79 | 1011.2 |
| 20260508063324 | 7 | 237 | 3.2 | 6.4 | 0.00 | 0.00 | 0.00 | 79 | 1011.2 |
| 20260508062825 | 7 | 237 | 3.2 | 6.4 | 0.00 | 0.00 | 0.00 | 79 | 1011.2 |
| 20260508062546 | 7 | 237 | 3.2 | 6.4 | 0.00 | 0.00 | 0.00 | 78 | 1011.3 |
| 20260508061819 | 7 | 237 | 3.2 | 6.4 | 0.00 | 0.00 | 0.00 | 78 | 1011.5 |
| 20260508061313 | 7 | 237 | 3.2 | 4.8 | 0.00 | 0.00 | 0.00 | 78 | 1011.5 |
| 20260508060807 | 7 | 237 | 3.2 | 4.8 | 0.00 | 0.00 | 0.00 | 77 | 1011.4 |
| 20260508060301 | 7 | 237 | 3.2 | 4.8 | 0.00 | 0.00 | 0.00 | 77 | 1011.5 |
| 20260508055755 | 7 | 237 | 3.2 | 6.4 | 0.00 | 0.00 | 0.00 | 76 | 1011.5 |
| 20260508055250 | 7 | 237 | 3.2 | 6.4 | 0.00 | 0.00 | 0.00 | 76 | 1011.6 |
| 20260508054749 | 7 | 237 | 3.2 | 4.8 | 0.00 | 0.00 | 0.00 | 75 | 1011.5 |
| 20260508054246 | 7 | 237 | 3.2 | 6.4 | 0.00 | 0.00 | 0.00 | 75 | 1011.5 |
| 20260508053745 | 7 | 237 | 1.6 | 6.4 | 0.00 | 0.00 | 0.00 | 75 | 1011.5 |
| 20260508053243 | 8 | 237 | 3.2 | 6.4 | 0.00 | 0.00 | 0.00 | 75 | 1011.5 |
| 20260508052740 | 8 | 237 | 3.2 | 6.4 | 0.00 | 0.00 | 0.00 | 74 | 1011.4 |
| 20260508052459 | 8 | 237 | 3.2 | 6.4 | 0.00 | 0.00 | 0.00 | 74 | 1011.4 |
| 20260508051740 | 8 | 237 | 3.2 | 4.8 | 0.00 | 0.00 | 0.00 | 74 | 1011.5 |
| 20260508051238 | 8 | 237 | 1.6 | 3.2 | 0.00 | 0.00 | 0.00 | 73 | 1011.5 |
| 20260508050737 | 8 | 237 | 1.6 | 3.2 | 0.00 | 0.00 | 0.00 | 74 | 1011.5 |
| 20260508050234 | 8 | 237 | 3.2 | 4.8 | 0.00 | 0.00 | 0.00 | 73 | 1011.5 |
| 20260508045953 | 8 | 237 | 3.2 | 4.8 | 0.00 | 0.00 | 0.00 | 73 | 1011.4 |
| 20260508045235 | 8 | 237 | 3.2 | 4.8 | 0.00 | 0.00 | 0.00 | 72 | 1011.4 |
| 20260508044733 | 8 | 237 | 3.2 | 4.8 | 0.00 | 0.00 | 0.00 | 72 | 1011.5 |
| 20260508044230 | 8 | 237 | 3.2 | 4.8 | 0.00 | 0.00 | 0.00 | 71 | 1011.4 |